Regional Weather Roundup
Issued by NWS Memphis, TN

Home | Current Version | Previous Version | Text Only | Print | Product List | Glossary On
Versions: 1 2 3 4 5 6 7 8 9 10 11 12 13 14 15 16 17 18 19 20 21 22 23 24 25 26 27 28 29 30 31 32 33 34 35 36 37 38 39 40 41 42 43 44 45 46 47 48 49 50
000
ASUS44 KMEG 211410
RWRMEG
MEMPHIS CWA HOURLY WEATHER ROUNDUP
NATIONAL WEATHER SERVICE MEMPHIS TN
900 AM CDT THU SEP 21 2017

...WEST TENNESSEE...

CITY           SKY/WX    TMP DP  RH WIND       PRES   REMARKS
MEMPHIS INTL   SUNNY     79  69  71 S3        30.07R
NWS MEMPHIS      N/A     77 N/A N/A MISG        N/A
JACKSON        SUNNY     79  74  84 CALM      30.09R
COVINGTON      SUNNY     77  73  88 S3        30.07S
SOMERVILLE     SUNNY     81  72  74 SW5       30.07R
BOLIVAR        SUNNY     77  73  88 CALM      30.08R
LEXINGTON      SUNNY     77  73  88 CALM      30.08S FOG
SELMER         SUNNY     79  73  83 CALM      30.08S
SAVANNAH       SUNNY     79  73  83 CALM      30.07F
DYERSBURG      SUNNY     79  73  82 SW3       30.07S
PARIS          SUNNY     79  73  83 S3        30.07S
HUNTINGDON     SUNNY     79  73  83 SW3       30.07S


...EASTERN ARKANSAS...

CITY           SKY/WX    TMP DP  RH WIND       PRES   REMARKS
JONESBORO      MOSUNNY   77  75  93 S5        30.05R
WEST MEMPHIS   SUNNY     78  73  84 S7        30.05R
BATESVILLE     MOSUNNY  N/A N/A N/A VRB5      30.06R
NEWPORT        SUNNY     76  73  91 S8        30.06R
BLYTHEVILLE    SUNNY     79  75  87 S5        30.06R
NW BLYTHEVILLE MOSUNNY   79  72  78 S5        30.06S
SEARCY         MOSUNNY   78  75  90 VRB5      30.07R
STUTTGART      SUNNY     79  74  84 S6        30.05R
PINE BLUFF     SUNNY     77  73  87 S5        30.05R
MONTICELLO     SUNNY     76  72  87 S3        30.05R


...NORTH MISSISSIPPI...

CITY           SKY/WX    TMP DP  RH WIND       PRES   REMARKS
TUPELO         SUNNY     78  71  79 CALM      30.08R
BATESVILLE     SUNNY     74  72  95 CALM      30.07S
OLIVE BRANCH   SUNNY    N/A N/A N/A CALM      30.07R
TUNICA           N/A     77  70  78 S5        30.07S
CLARKSDALE       N/A     77  75  94 S6        30.07R
GREENWOOD      SUNNY     78  69  73 CALM      30.06R
COLUMBUS       SUNNY     78  77  96 CALM      30.07R
STARKVILLE     SUNNY     73  72  94 CALM      30.09S
GOLDEN TRIANGL SUNNY     79  73  83 N5        30.04R


...SOUTHEAST MISSOURI...

CITY           SKY/WX    TMP DP  RH WIND       PRES   REMARKS
KENNETT        SUNNY     79  75  89 MISG      30.04S HAZE
WEST PLAINS    SUNNY     76  71  85 S6        30.07S
POPLAR BLUFF   SUNNY     76  72  87 SE3       30.05R
CAPE GIRARDEAU SUNNY     77  71  82 S5        30.05S


...NORTHWEST ALABAMA...

CITY           SKY/WX    TMP DP  RH WIND       PRES   REMARKS
MUSCLE SHOALS  SUNNY     77  71  82 CALM      30.10S


...MIDDLE TENNESSEE...

CITY           SKY/WX    TMP DP  RH WIND       PRES   REMARKS
NASHVILLE      MOSUNNY   78  70  76 CALM      30.11R
CLARKSVILLE    SUNNY     78  71  79 CALM      30.09S
COLUMBIA       SUNNY     75  75 100 CALM      30.08S FOG


...WESTERN KENTUCKY...

CITY           SKY/WX    TMP DP  RH WIND       PRES   REMARKS
PADUCAH        SUNNY     80  71  74 SW6       30.06R
FORT CAMPBELL  SUNNY     80  72  75 CALM      30.08S


...CENTRAL ARKANSAS...

CITY           SKY/WX    TMP DP  RH WIND       PRES   REMARKS
LITTLE ROCK    MOSUNNY   77  75  93 S5        30.04R


SKY/WX REPORTED AS FAIR MEANS FEW OR NO CLOUDS BELOW
12 THOUSAND FEET.





USA.gov is the U.S. government's official web portal to all federal, state and local government web resources and services.